SL-8 R/B

Satellite information

Favourite Embed

Satellite Type and Status

ROCKET BODYIN ORBIT

Key statistics

Satellite SL-8 R/B at a glance.

Uptime

13634

Days in orbit

Revolutions

≈ 14.4

Per day

Orbit

LEO

Low Earth Orbit

Inclination

74.1

Latest

Satellite identification and parameters

Extended collection of information and parameters for SL-8 R/B.

Object identification

Identified? True

Debris? False

Object name: SL-8 R/B

International designator: 1988-053B

Object number (NORAD): 19257

Object ID (CCSDS): 19257

Country: COMMONWEALTH OF INDEPENDENT STATES (CIS)

Current information (Y/N): Y

RCS size: LARGE

Orbital parameters

Period: 100.083 minutes

Inclination: 74.0501 deg

SMA: 7140.57 km

Apoapsis: 777.412 km

Periapsis: 747.457 km

RAAN: 13.6382 deg

Eccentricy: 0.00209758

Argument of periapsis: 231.8702 deg

Mean anomaly: 305.4364 deg

Mean motion: 14.38810118 rev/day

Mean motion (dot): 0.00000459 rev/day2

B* drag term: 0.00015751023 1/REarth

Two-line elements (TLE)

Creation date: Oct. 19, 2025, 2:20 a.m.

Reference frame: TEME

Reference center: EARTH

Epoch: Oct. 18, 2025, 11:34 p.m. UTC

TLE line 0: 0 SL-8 R/B

TLE line 1: 1 19257U 88053B 25291.98257045 .00000459 00000-0 15751-3 0 9997

TLE line 2: 2 19257 74.0501 13.6382 0020976 231.8702 305.4364 14.38810118956216

Live tracking on map

Real-time ground track for satellite SL-8 R/B.

In-orbit conjunctions

A list of the most updated potential collisions computed for object SL-8 R/B.

Target Orbit TCA Probability of collision Miss distance Type
COSMOS 2251 DEB LEO 2025-10-03 08:29:54 0.0002743016 391.0 (m) DEBRIS
CZ-6A DEB LEO 2025-08-23 20:01:44 0.001443897 194.0 (m) DEBRIS
CZ-6A DEB SSO 2025-05-22 07:07:20 0.0003536689 322.0 (m) DEBRIS
FENGYUN 1C DEB SSO 2025-04-04 09:26:26 0.0001127108 247.0 (m) DEBRIS
CZ-6A DEB LEO 2025-01-02 13:33:14 0.0001368345 632.0 (m) DEBRIS

Associated space launch

Military communications satellite

SL-8 R/B was lifted into orbit during the mission ‘Kosmos-3M | Strela-2M 45’, on board a Kosmos-3M space rocket.

The launch took place on June 21, 1988, 4:26 p.m. from 133/3 (133L).

For more information about the launch, click the button.

Launch to space Kosmos-3M | Strela-2M 45
Kosmos-3M | Strela-2M 45

Agency: N/A

Status: Launch Successful

Launch date: June 21, 1988, 4:26 p.m. UTC

Rocket: Kosmos-3M

Launch pad: 133/3 (133L)

Location: Plesetsk Cosmodrome, Russian Federation

...

Latest news about this satellite

There are no fresh news available about this satellite. Check back as we update our databases every day.


Newsletter sign-up

Weekly statistics, charts and insights to help you stay on top of the space industry.